This is the latest recevied weather packets stored in our database for station/object KN6KDD. If no packets are shown the sender has not sent any weather packets the latest 10 day(s).
| Time | Temp. | Humidity | Pressure | Rain* | Wind** | Luminosity | Snow |
|---|---|---|---|---|---|---|---|
| 1777502572 | 23.33° C | 46% | 1357.3 hPa | 0 mm | - | 697 W/m² | - |
| 1777502269 | 22.78° C | 47% | 1357.4 hPa | 0 mm | - | 714 W/m² | - |
| 1777501966 | 23.89° C | 48% | 1357.4 hPa | 0 mm | - | 725 W/m² | - |
| 1777501663 | 22.78° C | 49% | 1357.4 hPa | 0 mm | - | 739 W/m² | - |
| 1777501359 | 22.78° C | 49% | 1357.5 hPa | 0 mm | - | 752 W/m² | - |
| 1777501057 | 23.33° C | 46% | 1357.5 hPa | 0 mm | - | 763 W/m² | - |
| 1777500755 | 23.89° C | 49% | 1357.5 hPa | 0 mm | - | 779 W/m² | - |
| 1777500452 | 23.33° C | 47% | 1357.5 hPa | 0 mm | - | 784 W/m² | - |
| 1777500148 | 23.33° C | 45% | 1357.8 hPa | 0 mm | - | 797 W/m² | - |
| 1777499845 | 23.33° C | 44% | 1357.8 hPa | 0 mm | - | 807 W/m² | - |
| 1777499541 | 23.33° C | 41% | 1357.7 hPa | 0 mm | - | 818 W/m² | - |
| 1777499240 | 23.33° C | 44% | 1357.8 hPa | 0 mm | - | 827 W/m² | - |
| 1777498936 | 23.33° C | 45% | 1357.7 hPa | 0 mm | - | 837 W/m² | - |
| 1777498632 | 23.33° C | 42% | 1357.8 hPa | 0 mm | - | 846 W/m² | - |
| 1777498328 | 23.33° C | 43% | 1357.8 hPa | 0 mm | - | 856 W/m² | - |
| 1777498027 | 22.78° C | 46% | 1357.8 hPa | 0 mm | - | 864 W/m² | - |
| 1777497723 | 22.22° C | 45% | 1357.9 hPa | 0 mm | - | 870 W/m² | - |
| 1777497420 | 22.78° C | 47% | 1358 hPa | 0 mm | - | 875 W/m² | - |
| 1777497115 | 22.78° C | 47% | 1358.3 hPa | 0 mm | - | 884 W/m² | - |
| 1777496812 | 22.78° C | 51% | 1357.9 hPa | 0 mm | - | 885 W/m² | - |
| 1777496509 | 22.78° C | 49% | 1358.3 hPa | 0 mm | - | 894 W/m² | - |
| 1777496206 | 22.78° C | 52% | 1358.2 hPa | 0 mm | - | 900 W/m² | - |
| 1777495902 | 22.78° C | 49% | 1358 hPa | 0 mm | - | 904 W/m² | - |
| 1777495598 | 22.78° C | 52% | 1357.9 hPa | 0 mm | - | 909 W/m² | - |
| 1777495293 | 22.78° C | 53% | 1358.2 hPa | 0 mm | - | 910 W/m² | - |
* Rain latest hour (hover to see other rain measurements)
** Current wind speed in m/s (hover to see current wind gust speed)